Time,TemperatureF,DewpointF,PressureIn,WindDirection,WindDirectionDegrees,WindSpeedMPH,WindSpeedGustMPH,Humidity,HourlyPrecipIn,Conditions,Clouds,dailyrainin,SoftwareType,DateUTC
2013-02-16 00:00:00,35.4,31.6,30.01,NNW,327,0.0,0.0,86,0.00,,CLR,0.00,VWS V13.01,2013-02-16 05:00:00,
2013-02-16 00:01:00,35.3,31.5,30.01,NNW,327,0.0,0.0,86,0.00,,CLR,0.00,VWS V13.01,2013-02-16 05:01:00,
2013-02-16 00:06:00,35.1,31.6,30.00,NNW,327,0.0,0.0,87,0.00,,CLR,0.00,VWS V13.01,2013-02-16 05:06:00,
2013-02-16 00:11:00,35.0,31.5,30.01,NNW,327,0.0,0.0,87,0.00,,CLR,0.00,VWS V13.01,2013-02-16 05:11:00,
2013-02-16 00:16:00,34.8,31.3,30.01,NNW,327,0.0,0.0,87,0.00,,CLR,0.00,VWS V13.01,2013-02-16 05:16:00,
2013-02-16 00:21:00,34.7,31.2,30.01,NNW,327,0.0,0.0,87,0.00,,CLR,0.00,VWS V13.01,2013-02-16 05:21:00,
2013-02-16 00:23:00,34.6,31.1,30.01,NNW,327,0.0,0.0,87,0.00,,CLR,0.00,VWS V13.01,2013-02-16 05:23:00,
2013-02-16 00:28:00,34.4,31.2,30.01,WSW,257,2.0,3.0,88,0.00,,CLR,0.00,VWS V13.01,2013-02-16 05:28:00,
2013-02-16 00:33:00,34.3,31.1,30.01,WSW,257,0.0,3.0,88,0.00,,CLR,0.00,VWS V13.01,2013-02-16 05:33:00,
2013-02-16 00:38:00,34.4,31.2,30.01,WSW,257,0.0,3.0,88,0.00,,CLR,0.00,VWS V13.01,2013-02-16 05:38:00,
2013-02-16 00:43:00,34.6,31.1,30.01,WSW,257,0.0,0.0,87,0.00,,CLR,0.00,VWS V13.01,2013-02-16 05:43:00,
2013-02-16 00:48:00,34.4,31.2,30.01,WSW,257,0.0,0.0,88,0.00,,CLR,0.00,VWS V13.01,2013-02-16 05:48:00,
2013-02-16 00:53:00,34.4,31.2,30.01,WSW,257,0.0,2.0,88,0.00,,CLR,0.00,VWS V13.01,2013-02-16 05:53:00,
2013-02-16 00:58:00,33.9,31.0,30.01,WSW,257,2.0,3.0,89,0.00,,CLR,0.00,VWS V13.01,2013-02-16 05:58:00,
2013-02-16 01:04:00,33.5,30.9,30.01,West,272,0.0,3.0,90,0.00,,CLR,0.00,VWS V13.01,2013-02-16 06:04:00,
2013-02-16 01:09:00,33.3,31.0,30.01,West,272,1.0,3.0,91,0.00,,CLR,0.00,VWS V13.01,2013-02-16 06:09:00,
2013-02-16 01:14:00,33.1,30.8,30.01,West,272,2.0,3.0,91,0.00,,CLR,0.00,VWS V13.01,2013-02-16 06:14:00,
2013-02-16 01:19:00,33.0,30.7,30.01,WNW,284,3.0,4.0,91,0.00,,CLR,0.00,VWS V13.01,2013-02-16 06:19:00,
2013-02-16 01:24:00,32.9,30.6,30.00,West,268,0.0,4.0,91,0.00,,CLR,0.00,VWS V13.01,2013-02-16 06:24:00,
2013-02-16 01:30:00,32.6,30.3,30.00,WSW,238,1.0,3.0,91,0.00,,CLR,0.00,VWS V13.01,2013-02-16 06:30:00,
2013-02-16 01:35:00,32.3,30.2,30.00,SSW,195,3.0,4.0,92,0.00,,CLR,0.00,VWS V13.01,2013-02-16 06:35:00,
2013-02-16 01:40:00,32.3,30.2,30.00,SSW,204,0.0,4.0,92,0.00,,CLR,0.00,VWS V13.01,2013-02-16 06:40:00,
2013-02-16 01:45:00,32.3,30.2,30.00,WSW,241,1.0,2.0,92,0.00,,CLR,0.00,VWS V13.01,2013-02-16 06:45:00,
2013-02-16 01:50:00,32.5,30.4,30.01,SW,226,2.0,4.0,92,0.00,,CLR,0.00,VWS V13.01,2013-02-16 06:50:00,
2013-02-16 01:55:00,33.2,30.9,30.01,West,266,0.0,4.0,91,0.00,,CLR,0.00,VWS V13.01,2013-02-16 06:55:00,
2013-02-16 02:00:00,33.8,30.9,30.01,WSW,251,0.0,2.0,89,0.00,,CLR,0.00,VWS V13.01,2013-02-16 07:00:00,
2013-02-16 02:05:00,34.4,30.9,30.00,WSW,253,2.0,4.0,87,0.00,,CLR,0.00,VWS V13.01,2013-02-16 07:05:00,
2013-02-16 02:10:00,34.9,30.6,30.00,WNW,303,2.0,4.0,84,0.00,,CLR,0.00,VWS V13.01,2013-02-16 07:10:00,
2013-02-16 02:15:00,35.2,30.3,30.00,West,272,4.0,4.0,82,0.00,,CLR,0.00,VWS V13.01,2013-02-16 07:15:00,
2013-02-16 02:21:00,35.3,30.1,30.00,West,280,2.0,5.0,81,0.00,,CLR,0.00,VWS V13.01,2013-02-16 07:21:00,
2013-02-16 02:26:00,35.2,29.7,30.00,WNW,291,5.0,6.0,80,0.00,,CLR,0.00,VWS V13.01,2013-02-16 07:26:00,
2013-02-16 02:31:00,35.2,29.7,30.00,West,277,3.0,7.0,80,0.00,,CLR,0.00,VWS V13.01,2013-02-16 07:31:00,
2013-02-16 02:36:00,35.0,29.5,29.99,WNW,283,2.0,7.0,80,0.00,,CLR,0.00,VWS V13.01,2013-02-16 07:36:00,
2013-02-16 02:41:00,34.9,29.7,30.00,NW,320,2.0,7.0,81,0.00,,CLR,0.00,VWS V13.01,2013-02-16 07:41:00,
2013-02-16 02:46:00,34.8,29.6,30.00,NW,314,1.0,2.0,81,0.00,,CLR,0.00,VWS V13.01,2013-02-16 07:46:00,
2013-02-16 02:51:00,35.1,29.3,30.00,WNW,297,0.0,4.0,79,0.00,,CLR,0.00,VWS V13.01,2013-02-16 07:51:00,
2013-02-16 02:56:00,35.2,29.4,30.00,WNW,283,2.0,4.0,79,0.00,,CLR,0.00,VWS V13.01,2013-02-16 07:56:00,
2013-02-16 03:02:00,35.3,29.1,30.00,WNW,294,3.0,5.0,78,0.00,,CLR,0.00,VWS V13.01,2013-02-16 08:02:00,
2013-02-16 03:07:00,35.2,29.0,30.00,WNW,303,2.0,5.0,78,0.00,,CLR,0.00,VWS V13.01,2013-02-16 08:07:00,
2013-02-16 03:11:00,35.1,29.3,30.00,WNW,299,5.0,6.0,79,0.00,,CLR,0.00,VWS V13.01,2013-02-16 08:11:00,
2013-02-16 03:16:00,34.9,29.1,30.00,NNW,338,2.0,6.0,79,0.00,,CLR,0.00,VWS V13.01,2013-02-16 08:16:00,
2013-02-16 03:21:00,34.7,28.9,30.00,WNW,284,4.0,6.0,79,0.00,,CLR,0.00,VWS V13.01,2013-02-16 08:21:00,
2013-02-16 03:27:00,34.8,29.0,30.00,NW,326,2.0,2.0,79,0.00,,CLR,0.00,VWS V13.01,2013-02-16 08:27:00,
2013-02-16 03:32:00,34.7,28.9,29.99,NNW,327,2.0,4.0,79,0.00,,CLR,0.00,VWS V13.01,2013-02-16 08:32:00,
2013-02-16 03:37:00,34.6,28.8,29.99,North,349,3.0,4.0,79,0.00,,CLR,0.00,VWS V13.01,2013-02-16 08:37:00,
2013-02-16 03:42:00,34.4,28.6,30.00,NNW,342,3.0,3.0,79,0.00,,CLR,0.00,VWS V13.01,2013-02-16 08:42:00,
2013-02-16 03:47:00,34.4,28.6,30.00,NNW,327,4.0,6.0,79,0.00,,CLR,0.00,VWS V13.01,2013-02-16 08:47:00,
2013-02-16 03:52:00,34.6,28.8,30.00,NNW,339,3.0,11.0,79,0.00,,CLR,0.00,VWS V13.01,2013-02-16 08:52:00,
2013-02-16 03:57:00,34.6,28.8,30.00,NNW,342,2.0,8.0,79,0.00,,CLR,0.00,VWS V13.01,2013-02-16 08:57:00,
2013-02-16 04:02:00,34.5,28.7,30.00,NNW,340,4.0,8.0,79,0.00,,CLR,0.00,VWS V13.01,2013-02-16 09:02:00,
2013-02-16 04:07:00,34.4,28.6,30.00,NNW,345,5.0,8.0,79,0.00,,CLR,0.00,VWS V13.01,2013-02-16 09:07:00,
2013-02-16 04:12:00,34.4,28.6,30.00,North,355,4.0,9.0,79,0.00,,CLR,0.00,VWS V13.01,2013-02-16 09:12:00,
2013-02-16 04:17:00,34.4,28.6,30.00,NNW,334,1.0,9.0,79,0.00,,CLR,0.00,VWS V13.01,2013-02-16 09:17:00,
2013-02-16 04:22:00,34.4,28.6,30.00,North,6,3.0,9.0,79,0.00,,CLR,0.00,VWS V13.01,2013-02-16 09:22:00,
2013-02-16 04:27:00,34.4,28.9,30.00,North,6,1.0,2.0,80,0.00,,CLR,0.00,VWS V13.01,2013-02-16 09:27:00,
2013-02-16 04:32:00,34.2,28.7,30.00,North,360,1.0,2.0,80,0.00,,CLR,0.00,VWS V13.01,2013-02-16 09:32:00,
2013-02-16 04:37:00,34.0,28.8,30.00,North,360,0.0,2.0,81,0.00,,CLR,0.00,VWS V13.01,2013-02-16 09:37:00,
2013-02-16 04:42:00,33.9,28.7,30.00,NNW,334,0.0,2.0,81,0.00,,CLR,0.00,VWS V13.01,2013-02-16 09:42:00,
2013-02-16 04:47:00,33.8,28.6,30.00,NNW,334,2.0,2.0,81,0.00,,CLR,0.00,VWS V13.01,2013-02-16 09:47:00,
2013-02-16 04:52:00,33.8,28.6,30.00,North,357,3.0,4.0,81,0.00,,CLR,0.00,VWS V13.01,2013-02-16 09:52:00,
2013-02-16 04:57:00,33.8,28.6,30.01,North,357,2.0,2.0,81,0.00,,CLR,0.00,VWS V13.01,2013-02-16 09:57:00,
2013-02-16 05:03:00,33.7,28.8,30.01,North,357,1.0,2.0,82,0.00,,CLR,0.00,VWS V13.01,2013-02-16 10:03:00,
2013-02-16 05:08:00,33.5,28.6,30.01,NNE,15,4.0,4.0,82,0.00,,CLR,0.00,VWS V13.01,2013-02-16 10:08:00,
2013-02-16 05:13:00,33.4,28.5,30.01,NNE,15,2.0,3.0,82,0.00,,CLR,0.00,VWS V13.01,2013-02-16 10:13:00,
2013-02-16 05:18:00,33.2,28.6,30.01,NNE,13,4.0,6.0,83,0.00,,CLR,0.00,VWS V13.01,2013-02-16 10:18:00,
2013-02-16 05:23:00,33.1,28.2,30.00,North,5,4.0,7.0,82,0.00,,CLR,0.00,VWS V13.01,2013-02-16 10:23:00,
2013-02-16 05:28:00,33.0,28.1,30.01,NNE,16,2.0,3.0,82,0.00,,CLR,0.00,VWS V13.01,2013-02-16 10:28:00,
2013-02-16 05:33:00,32.9,28.0,30.01,North,357,4.0,6.0,82,0.00,,CLR,0.00,VWS V13.01,2013-02-16 10:33:00,
2013-02-16 05:38:00,32.9,28.0,30.01,NNW,342,2.0,6.0,82,0.00,,CLR,0.00,VWS V13.01,2013-02-16 10:38:00,
2013-02-16 05:43:00,33.0,27.8,30.01,North,1,3.0,3.0,81,0.00,,CLR,0.00,VWS V13.01,2013-02-16 10:43:00,
2013-02-16 05:48:00,33.0,27.8,30.01,North,1,1.0,3.0,81,0.00,,CLR,0.00,VWS V13.01,2013-02-16 10:48:00,
2013-02-16 05:53:00,32.9,27.7,30.01,North,1,0.0,3.0,81,0.00,,CLR,0.00,VWS V13.01,2013-02-16 10:53:00,
2013-02-16 05:58:00,32.9,27.7,30.01,North,1,1.0,2.0,81,0.00,,CLR,0.00,VWS V13.01,2013-02-16 10:58:00,
2013-02-16 06:03:00,32.8,27.6,30.01,North,1,0.0,2.0,81,0.00,,CLR,0.00,VWS V13.01,2013-02-16 11:03:00,
2013-02-16 06:08:00,32.7,27.8,30.01,North,1,0.0,2.0,82,0.00,,CLR,0.00,VWS V13.01,2013-02-16 11:08:00,
2013-02-16 06:13:00,32.6,27.7,30.01,North,1,0.0,2.0,82,0.00,,CLR,0.00,VWS V13.01,2013-02-16 11:13:00,
2013-02-16 06:18:00,32.5,27.9,30.01,North,1,0.0,2.0,83,0.00,,CLR,0.00,VWS V13.01,2013-02-16 11:18:00,
2013-02-16 06:23:00,32.4,27.8,30.01,North,1,2.0,2.0,83,0.00,,CLR,0.00,VWS V13.01,2013-02-16 11:23:00,
2013-02-16 06:28:00,32.4,27.8,30.01,NNE,12,5.0,5.0,83,0.00,,CLR,0.00,VWS V13.01,2013-02-16 11:28:00,
2013-02-16 06:33:00,32.4,27.8,30.01,North,351,2.0,6.0,83,0.00,,CLR,0.00,VWS V13.01,2013-02-16 11:33:00,
2013-02-16 06:38:00,32.4,27.8,30.01,North,351,0.0,6.0,83,0.00,,CLR,0.00,VWS V13.01,2013-02-16 11:38:00,
2013-02-16 06:43:00,32.3,27.7,30.01,North,351,1.0,3.0,83,0.00,,CLR,0.00,VWS V13.01,2013-02-16 11:43:00,
2013-02-16 06:48:00,32.3,27.7,30.01,North,351,0.0,3.0,83,0.00,,CLR,0.00,VWS V13.01,2013-02-16 11:48:00,
2013-02-16 06:53:00,32.2,27.6,30.01,North,351,1.0,4.0,83,0.00,,CLR,0.00,VWS V13.01,2013-02-16 11:53:00,
2013-02-16 06:58:00,32.1,27.5,30.01,North,351,1.0,2.0,83,0.00,,CLR,0.00,VWS V13.01,2013-02-16 11:58:00,
2013-02-16 07:03:00,32.1,27.5,30.01,North,349,2.0,4.0,83,0.00,,CLR,0.00,VWS V13.01,2013-02-16 12:03:00,
2013-02-16 07:08:00,32.1,27.8,30.01,NNW,332,2.0,4.0,84,0.00,,CLR,0.00,VWS V13.01,2013-02-16 12:08:00,
2013-02-16 07:14:00,32.0,27.7,30.01,NW,326,2.0,3.0,84,0.00,,CLR,0.00,VWS V13.01,2013-02-16 12:14:00,
2013-02-16 07:19:00,32.0,27.7,30.01,NW,322,0.0,3.0,84,0.00,,CLR,0.00,VWS V13.01,2013-02-16 12:19:00,
2013-02-16 07:24:00,32.0,27.7,30.02,NW,322,1.0,3.0,84,0.00,,CLR,0.00,VWS V13.01,2013-02-16 12:24:00,
2013-02-16 07:29:00,32.0,27.7,30.01,NW,322,0.0,0.0,84,0.00,,CLR,0.00,VWS V13.01,2013-02-16 12:29:00,
2013-02-16 07:34:00,32.0,27.7,30.01,NW,322,0.0,1.0,84,0.00,,CLR,0.00,VWS V13.01,2013-02-16 12:34:00,
2013-02-16 07:39:00,32.1,27.8,30.01,NW,322,0.0,2.0,84,0.00,,CLR,0.00,VWS V13.01,2013-02-16 12:39:00,
2013-02-16 07:44:00,32.1,27.8,30.01,NW,322,2.0,2.0,84,0.00,,CLR,0.00,VWS V13.01,2013-02-16 12:44:00,
2013-02-16 07:50:00,32.2,27.9,30.01,NW,322,0.0,3.0,84,0.00,,CLR,0.00,VWS V13.01,2013-02-16 12:50:00,
2013-02-16 07:55:00,32.2,27.9,30.01,NW,323,2.0,3.0,84,0.00,,CLR,0.00,VWS V13.01,2013-02-16 12:55:00,
2013-02-16 08:00:00,32.2,27.9,30.01,NNW,343,4.0,5.0,84,0.00,,CLR,0.00,VWS V13.01,2013-02-16 13:00:00,
2013-02-16 08:05:00,32.2,27.6,30.01,NNW,345,3.0,6.0,83,0.00,,CLR,0.00,VWS V13.01,2013-02-16 13:05:00,
2013-02-16 08:10:00,32.2,27.9,30.01,NNW,342,3.0,6.0,84,0.00,,CLR,0.00,VWS V13.01,2013-02-16 13:10:00,
2013-02-16 08:15:00,32.2,27.9,30.01,NNW,345,3.0,5.0,84,0.00,,CLR,0.00,VWS V13.01,2013-02-16 13:15:00,
2013-02-16 08:20:00,32.2,27.9,30.01,North,357,5.0,5.0,84,0.00,,CLR,0.00,VWS V13.01,2013-02-16 13:20:00,
2013-02-16 08:25:00,32.3,28.0,30.01,North,350,2.0,5.0,84,0.00,,CLR,0.00,VWS V13.01,2013-02-16 13:25:00,
2013-02-16 08:30:00,32.3,28.0,30.01,NW,322,2.0,4.0,84,0.00,,CLR,0.00,VWS V13.01,2013-02-16 13:30:00,
2013-02-16 08:36:00,32.3,28.0,30.01,NW,322,1.0,4.0,84,0.00,,CLR,0.00,VWS V13.01,2013-02-16 13:36:00,
2013-02-16 08:41:00,32.4,28.1,30.01,NNW,331,1.0,4.0,84,0.00,,CLR,0.00,VWS V13.01,2013-02-16 13:41:00,
2013-02-16 08:46:00,32.5,28.2,30.01,NNW,344,3.0,6.0,84,0.00,,CLR,0.00,VWS V13.01,2013-02-16 13:46:00,
2013-02-16 08:51:00,32.6,28.0,30.01,NNW,328,3.0,7.0,83,0.00,,CLR,0.00,VWS V13.01,2013-02-16 13:51:00,
2013-02-16 08:56:00,32.7,27.8,30.01,North,360,4.0,7.0,82,0.00,,CLR,0.00,VWS V13.01,2013-02-16 13:56:00,
2013-02-16 09:02:00,32.7,27.8,30.00,WNW,303,1.0,6.0,82,0.00,,CLR,0.00,VWS V13.01,2013-02-16 14:02:00,
2013-02-16 09:07:00,32.9,28.3,30.00,North,353,3.0,6.0,83,0.00,,CLR,0.00,VWS V13.01,2013-02-16 14:07:00,
2013-02-16 09:12:00,32.9,27.7,30.00,North,1,6.0,7.0,81,0.00,,CLR,0.00,VWS V13.01,2013-02-16 14:12:00,
2013-02-16 09:17:00,32.8,27.3,30.00,North,355,4.0,12.0,80,0.00,,CLR,0.00,VWS V13.01,2013-02-16 14:17:00,
2013-02-16 09:22:00,32.9,27.1,30.00,NNW,341,5.0,12.0,79,0.00,,CLR,0.00,VWS V13.01,2013-02-16 14:22:00,
2013-02-16 09:27:00,33.1,27.0,30.00,NNW,331,7.0,14.0,78,0.00,,CLR,0.00,VWS V13.01,2013-02-16 14:27:00,
2013-02-16 09:32:00,33.0,26.3,30.00,North,6,5.0,14.0,76,0.00,,CLR,0.00,VWS V13.01,2013-02-16 14:32:00,
2013-02-16 09:37:00,33.1,26.4,30.00,North,2,5.0,14.0,76,0.00,,CLR,0.00,VWS V13.01,2013-02-16 14:37:00,
2013-02-16 09:43:00,33.2,26.5,30.00,North,9,5.0,7.0,76,0.00,,CLR,0.00,VWS V13.01,2013-02-16 14:43:00,
2013-02-16 09:48:00,33.0,25.6,29.99,North,358,10.0,14.0,74,0.00,,CLR,0.00,VWS V13.01,2013-02-16 14:48:00,
2013-02-16 09:53:00,33.0,26.0,30.00,North,6,13.0,15.0,75,0.00,,CLR,0.00,VWS V13.01,2013-02-16 14:53:00,
2013-02-16 09:58:00,32.9,25.9,30.00,NNE,16,9.0,10.0,75,0.00,,CLR,0.00,VWS V13.01,2013-02-16 14:58:00,
2013-02-16 10:03:00,33.1,25.7,30.00,North,3,9.0,10.0,74,0.00,,CLR,0.00,VWS V13.01,2013-02-16 15:03:00,
2013-02-16 10:08:00,33.0,25.3,30.00,North,6,6.0,13.0,73,0.00,,CLR,0.00,VWS V13.01,2013-02-16 15:08:00,
2013-02-16 10:13:00,33.0,25.6,30.00,North,357,4.0,10.0,74,0.00,,CLR,0.00,VWS V13.01,2013-02-16 15:13:00,
2013-02-16 10:19:00,33.3,25.9,30.00,WNW,297,7.0,10.0,74,0.00,,CLR,0.00,VWS V13.01,2013-02-16 15:19:00,
2013-02-16 10:24:00,33.3,26.2,30.00,NNW,328,4.0,12.0,75,0.00,,CLR,0.00,VWS V13.01,2013-02-16 15:24:00,
2013-02-16 10:29:00,33.4,26.3,30.00,NW,310,5.0,10.0,75,0.00,,CLR,0.00,VWS V13.01,2013-02-16 15:29:00,
2013-02-16 10:34:00,33.6,26.2,30.00,NW,308,6.0,11.0,74,0.00,,CLR,0.00,VWS V13.01,2013-02-16 15:34:00,
2013-02-16 10:39:00,33.8,26.4,30.00,NW,318,4.0,11.0,74,0.00,,CLR,0.00,VWS V13.01,2013-02-16 15:39:00,
2013-02-16 10:44:00,33.9,26.2,30.00,NNW,329,4.0,11.0,73,0.00,,CLR,0.00,VWS V13.01,2013-02-16 15:44:00,
2013-02-16 10:49:00,34.1,25.7,30.00,NNW,346,6.0,12.0,71,0.00,,CLR,0.00,VWS V13.01,2013-02-16 15:49:00,
2013-02-16 10:54:00,34.0,25.6,29.99,WSW,243,9.0,12.0,71,0.00,,CLR,0.00,VWS V13.01,2013-02-16 15:54:00,
2013-02-16 11:00:00,34.3,25.5,29.99,NNW,331,7.0,10.0,70,0.00,,CLR,0.00,VWS V13.01,2013-02-16 16:00:00,
2013-02-16 11:05:00,34.4,25.3,29.99,NNW,345,9.0,11.0,69,0.00,,CLR,0.00,VWS V13.01,2013-02-16 16:05:00,
2013-02-16 11:10:00,34.3,25.2,29.99,NW,320,2.0,11.0,69,0.00,,CLR,0.00,VWS V13.01,2013-02-16 16:10:00,
2013-02-16 11:15:00,34.4,25.6,29.99,North,1,5.0,11.0,70,0.00,,CLR,0.00,VWS V13.01,2013-02-16 16:15:00,
2013-02-16 11:20:00,34.3,24.9,29.98,North,357,7.0,11.0,68,0.00,,CLR,0.00,VWS V13.01,2013-02-16 16:20:00,
2013-02-16 11:25:00,34.0,24.9,29.98,WNW,286,5.0,13.0,69,0.00,,CLR,0.00,VWS V13.01,2013-02-16 16:25:00,
2013-02-16 11:30:00,34.2,24.8,29.98,North,349,4.0,6.0,68,0.00,,CLR,0.00,VWS V13.01,2013-02-16 16:30:00,
2013-02-16 11:35:00,34.4,25.0,29.98,NNW,348,7.0,11.0,68,0.00,,CLR,0.00,VWS V13.01,2013-02-16 16:35:00,
2013-02-16 11:40:00,34.4,25.0,29.98,North,357,4.0,11.0,68,0.00,,CLR,0.00,VWS V13.01,2013-02-16 16:40:00,
2013-02-16 11:45:00,34.4,25.3,29.97,NNW,346,5.0,13.0,69,0.00,,CLR,0.00,VWS V13.01,2013-02-16 16:45:00,
2013-02-16 11:51:00,34.4,25.0,29.97,North,350,5.0,13.0,68,0.00,,CLR,0.00,VWS V13.01,2013-02-16 16:51:00,
2013-02-16 11:56:00,34.2,24.4,29.97,NNW,345,4.0,13.0,67,0.00,,CLR,0.00,VWS V13.01,2013-02-16 16:56:00,
2013-02-16 12:01:00,34.4,24.2,29.97,NNE,14,6.0,11.0,66,0.00,,CLR,0.00,VWS V13.01,2013-02-16 17:01:00,
2013-02-16 12:06:00,34.4,24.2,29.96,NNE,12,4.0,12.0,66,0.00,,CLR,0.00,VWS V13.01,2013-02-16 17:06:00,
2013-02-16 12:11:00,34.6,24.8,29.97,NNE,16,3.0,12.0,67,0.00,,CLR,0.00,VWS V13.01,2013-02-16 17:11:00,
2013-02-16 12:16:00,34.6,24.4,29.96,NNE,16,3.0,10.0,66,0.00,,CLR,0.00,VWS V13.01,2013-02-16 17:16:00,
2013-02-16 12:21:00,34.4,24.2,29.96,NE,36,4.0,10.0,66,0.00,,CLR,0.00,VWS V13.01,2013-02-16 17:21:00,
2013-02-16 12:26:00,34.4,23.9,29.95,North,353,3.0,10.0,65,0.00,,CLR,0.00,VWS V13.01,2013-02-16 17:26:00,
2013-02-16 12:32:00,34.4,23.9,29.94,NNW,335,3.0,10.0,65,0.00,,CLR,0.00,VWS V13.01,2013-02-16 17:32:00,
2013-02-16 12:37:00,34.6,23.7,29.94,NNE,24,5.0,10.0,64,0.00,,CLR,0.00,VWS V13.01,2013-02-16 17:37:00,
2013-02-16 12:42:00,34.7,24.1,29.94,NNW,335,4.0,4.0,65,0.00,,CLR,0.00,VWS V13.01,2013-02-16 17:42:00,
2013-02-16 12:47:00,34.6,23.7,29.95,NW,316,6.0,13.0,64,0.00,,CLR,0.00,VWS V13.01,2013-02-16 17:47:00,
2013-02-16 12:52:00,34.4,22.7,29.95,NW,306,6.0,13.0,62,0.00,,CLR,0.00,VWS V13.01,2013-02-16 17:52:00,
2013-02-16 12:57:00,34.4,22.4,29.94,NW,318,5.0,14.0,61,0.00,,CLR,0.00,VWS V13.01,2013-02-16 17:57:00,
2013-02-16 13:02:00,34.1,21.7,29.94,NNW,328,6.0,14.0,60,0.00,,CLR,0.00,VWS V13.01,2013-02-16 18:02:00,
2013-02-16 13:08:00,33.9,21.9,29.95,NNW,340,4.0,14.0,61,0.00,,CLR,0.00,VWS V13.01,2013-02-16 18:08:00,
2013-02-16 13:13:00,34.1,22.1,29.94,North,360,4.0,5.0,61,0.00,,CLR,0.00,VWS V13.01,2013-02-16 18:13:00,
2013-02-16 13:18:00,34.2,21.8,29.94,WNW,302,9.0,15.0,60,0.00,,CLR,0.00,VWS V13.01,2013-02-16 18:18:00,
2013-02-16 13:23:00,34.2,22.2,29.94,NW,305,4.0,15.0,61,0.00,,CLR,0.00,VWS V13.01,2013-02-16 18:23:00,
2013-02-16 13:28:00,34.4,22.0,29.94,North,353,6.0,10.0,60,0.00,,CLR,0.00,VWS V13.01,2013-02-16 18:28:00,
2013-02-16 13:33:00,34.4,21.6,29.94,North,350,6.0,11.0,59,0.00,,CLR,0.00,VWS V13.01,2013-02-16 18:33:00,
2013-02-16 13:38:00,33.9,21.1,29.94,North,355,4.0,15.0,59,0.00,,CLR,0.00,VWS V13.01,2013-02-16 18:38:00,
2013-02-16 13:44:00,34.0,21.2,29.93,WNW,283,3.0,15.0,59,0.00,,CLR,0.00,VWS V13.01,2013-02-16 18:44:00,
2013-02-16 13:49:00,34.2,21.4,29.93,NW,324,5.0,15.0,59,0.00,,CLR,0.00,VWS V13.01,2013-02-16 18:49:00,
2013-02-16 13:54:00,34.4,21.2,29.93,NW,305,7.0,15.0,58,0.00,,CLR,0.00,VWS V13.01,2013-02-16 18:54:00,
2013-02-16 13:59:00,34.3,21.5,29.93,WNW,295,5.0,6.0,59,0.00,,CLR,0.00,VWS V13.01,2013-02-16 18:59:00,
2013-02-16 14:04:00,34.4,21.6,29.92,NW,324,11.0,14.0,59,0.00,,CLR,0.00,VWS V13.01,2013-02-16 19:04:00,
2013-02-16 14:09:00,34.4,21.6,29.93,NNE,15,13.0,14.0,59,0.00,,CLR,0.00,VWS V13.01,2013-02-16 19:09:00,
2013-02-16 14:15:00,34.2,20.6,29.92,WSW,256,2.0,13.0,57,0.00,,CLR,0.00,VWS V13.01,2013-02-16 19:15:00,
2013-02-16 14:20:00,34.3,21.1,29.92,NNW,336,10.0,13.0,58,0.00,,CLR,0.00,VWS V13.01,2013-02-16 19:20:00,
2013-02-16 14:25:00,34.2,20.6,29.92,NNW,347,6.0,13.0,57,0.00,,CLR,0.00,VWS V13.01,2013-02-16 19:25:00,
2013-02-16 14:30:00,34.1,20.5,29.92,NNW,328,5.0,9.0,57,0.00,,CLR,0.00,VWS V13.01,2013-02-16 19:30:00,
2013-02-16 14:35:00,34.0,20.8,29.92,NNW,332,5.0,12.0,58,0.00,,CLR,0.00,VWS V13.01,2013-02-16 19:35:00,
2013-02-16 14:41:00,34.4,20.8,29.92,WNW,302,5.0,12.0,57,0.00,,CLR,0.00,VWS V13.01,2013-02-16 19:41:00,
2013-02-16 14:46:00,34.4,20.3,29.92,NW,311,11.0,11.0,56,0.00,,CLR,0.00,VWS V13.01,2013-02-16 19:46:00,
2013-02-16 14:51:00,34.2,20.6,29.92,NW,305,3.0,11.0,57,0.00,,CLR,0.00,VWS V13.01,2013-02-16 19:51:00,
2013-02-16 14:56:00,34.0,20.4,29.92,WNW,290,1.0,11.0,57,0.00,,CLR,0.00,VWS V13.01,2013-02-16 19:56:00,
2013-02-16 15:01:00,34.1,20.5,29.92,North,359,10.0,13.0,57,0.00,,CLR,0.00,VWS V13.01,2013-02-16 20:01:00,
2013-02-16 15:06:00,33.8,20.6,29.91,NNE,32,4.0,16.0,58,0.00,,CLR,0.00,VWS V13.01,2013-02-16 20:06:00,
2013-02-16 15:11:00,33.9,20.3,29.91,North,7,8.0,16.0,57,0.00,,CLR,0.00,VWS V13.01,2013-02-16 20:11:00,
2013-02-16 15:17:00,33.8,20.6,29.91,NNW,347,5.0,13.0,58,0.00,,CLR,0.00,VWS V13.01,2013-02-16 20:17:00,
2013-02-16 15:22:00,33.9,20.7,29.91,North,5,5.0,13.0,58,0.00,,CLR,0.00,VWS V13.01,2013-02-16 20:22:00,
2013-02-16 15:27:00,34.0,20.8,29.92,WNW,293,9.0,9.0,58,0.00,,CLR,0.00,VWS V13.01,2013-02-16 20:27:00,
2013-02-16 15:32:00,33.8,20.2,29.92,NW,324,2.0,13.0,57,0.00,,CLR,0.00,VWS V13.01,2013-02-16 20:32:00,
2013-02-16 15:37:00,33.9,20.7,29.91,NNW,327,11.0,13.0,58,0.00,,CLR,0.00,VWS V13.01,2013-02-16 20:37:00,
2013-02-16 15:42:00,33.8,20.6,29.91,NNW,344,4.0,7.0,58,0.00,,CLR,0.00,VWS V13.01,2013-02-16 20:42:00,
2013-02-16 15:47:00,33.8,20.2,29.91,NW,318,9.0,14.0,57,0.00,,CLR,0.00,VWS V13.01,2013-02-16 20:47:00,
2013-02-16 15:52:00,33.7,20.5,29.92,North,356,5.0,14.0,58,0.00,,CLR,0.00,VWS V13.01,2013-02-16 20:52:00,
2013-02-16 15:57:00,33.7,19.7,29.92,NW,315,10.0,11.0,56,0.00,,CLR,0.00,VWS V13.01,2013-02-16 20:57:00,
2013-02-16 16:02:00,33.6,19.6,29.92,North,6,7.0,13.0,56,0.00,,CLR,0.00,VWS V13.01,2013-02-16 21:02:00,
2013-02-16 16:07:00,33.5,19.5,29.92,NNW,334,2.0,13.0,56,0.00,,CLR,0.00,VWS V13.01,2013-02-16 21:07:00,
2013-02-16 16:13:00,33.5,19.5,29.91,NW,308,10.0,16.0,56,0.00,,CLR,0.00,VWS V13.01,2013-02-16 21:13:00,
2013-02-16 16:18:00,33.4,19.0,29.92,NNE,16,6.0,17.0,55,0.00,,CLR,0.00,VWS V13.01,2013-02-16 21:18:00,
2013-02-16 16:23:00,33.4,19.0,29.92,NW,312,3.0,17.0,55,0.00,,CLR,0.00,VWS V13.01,2013-02-16 21:23:00,
2013-02-16 16:28:00,33.4,19.0,29.92,WNW,288,4.0,7.0,55,0.00,,CLR,0.00,VWS V13.01,2013-02-16 21:28:00,
2013-02-16 16:33:00,33.4,19.0,29.92,WNW,299,1.0,14.0,55,0.00,,CLR,0.00,VWS V13.01,2013-02-16 21:33:00,
2013-02-16 16:39:00,33.4,19.4,29.91,North,354,6.0,14.0,56,0.00,,CLR,0.00,VWS V13.01,2013-02-16 21:39:00,
2013-02-16 16:44:00,33.4,19.8,29.91,NNW,344,5.0,11.0,57,0.00,,CLR,0.00,VWS V13.01,2013-02-16 21:44:00,
2013-02-16 16:49:00,33.4,19.4,29.92,NNW,328,11.0,14.0,56,0.00,,CLR,0.00,VWS V13.01,2013-02-16 21:49:00,
2013-02-16 16:54:00,33.3,18.9,29.92,North,6,10.0,16.0,55,0.00,,CLR,0.00,VWS V13.01,2013-02-16 21:54:00,
2013-02-16 16:59:00,33.2,18.8,29.92,NW,314,9.0,11.0,55,0.00,,CLR,0.00,VWS V13.01,2013-02-16 21:59:00,
2013-02-16 17:04:00,33.2,18.8,29.92,NW,309,7.0,17.0,55,0.00,,CLR,0.00,VWS V13.01,2013-02-16 22:04:00,
2013-02-16 17:09:00,33.0,18.6,29.92,NW,314,9.0,17.0,55,0.00,,CLR,0.00,VWS V13.01,2013-02-16 22:09:00,
2013-02-16 17:14:00,33.0,18.2,29.92,NNW,336,7.0,15.0,54,0.00,,CLR,0.00,VWS V13.01,2013-02-16 22:14:00,
2013-02-16 17:19:00,32.9,18.5,29.92,NNW,330,4.0,16.0,55,0.00,,CLR,0.00,VWS V13.01,2013-02-16 22:19:00,
2013-02-16 17:25:00,32.8,18.4,29.92,NW,321,5.0,16.0,55,0.00,,CLR,0.00,VWS V13.01,2013-02-16 22:25:00,
2013-02-16 17:30:00,32.8,18.4,29.92,North,350,4.0,11.0,55,0.00,,CLR,0.00,VWS V13.01,2013-02-16 22:30:00,
2013-02-16 17:35:00,32.7,18.8,29.92,NW,314,5.0,11.0,56,0.00,,CLR,0.00,VWS V13.01,2013-02-16 22:35:00,
2013-02-16 17:40:00,32.6,18.2,29.93,NNW,339,7.0,14.0,55,0.00,,CLR,0.00,VWS V13.01,2013-02-16 22:40:00,
2013-02-16 17:45:00,32.6,17.8,29.92,NW,314,16.0,18.0,54,0.00,,CLR,0.00,VWS V13.01,2013-02-16 22:45:00,
2013-02-16 17:50:00,32.5,17.7,29.93,North,355,9.0,18.0,54,0.00,,CLR,0.00,VWS V13.01,2013-02-16 22:50:00,
2013-02-16 17:55:00,32.4,17.6,29.93,North,359,8.0,18.0,54,0.00,,CLR,0.00,VWS V13.01,2013-02-16 22:55:00,
2013-02-16 18:00:00,32.3,18.0,29.93,North,354,10.0,17.0,55,0.00,,CLR,0.00,VWS V13.01,2013-02-16 23:00:00,
2013-02-16 18:05:00,32.1,17.8,29.93,North,353,11.0,17.0,55,0.00,,CLR,0.00,VWS V13.01,2013-02-16 23:05:00,
2013-02-16 18:11:00,32.1,17.8,29.93,WNW,302,6.0,17.0,55,0.00,,CLR,0.00,VWS V13.01,2013-02-16 23:11:00,
2013-02-16 18:16:00,32.0,18.1,29.93,NNW,332,11.0,12.0,56,0.00,,CLR,0.00,VWS V13.01,2013-02-16 23:16:00,
2013-02-16 18:21:00,31.8,17.9,29.94,WNW,291,4.0,21.0,56,0.00,,CLR,0.00,VWS V13.01,2013-02-16 23:21:00,
2013-02-16 18:26:00,31.7,18.2,29.94,NNW,345,11.0,21.0,57,0.00,,CLR,0.00,VWS V13.01,2013-02-16 23:26:00,
2013-02-16 18:31:00,31.6,18.5,29.94,North,3,14.0,15.0,58,0.00,,CLR,0.00,VWS V13.01,2013-02-16 23:31:00,
2013-02-16 18:36:00,31.4,17.9,29.94,WNW,303,9.0,22.0,57,0.00,,CLR,0.00,VWS V13.01,2013-02-16 23:36:00,
2013-02-16 18:41:00,31.3,17.9,29.95,North,350,9.0,22.0,57,0.00,,CLR,0.00,VWS V13.01,2013-02-16 23:41:00,
2013-02-16 18:46:00,31.2,17.8,29.95,NNW,347,4.0,16.0,57,0.00,,CLR,0.00,VWS V13.01,2013-02-16 23:46:00,
2013-02-16 18:51:00,31.1,17.7,29.95,NW,307,5.0,16.0,57,0.00,,CLR,0.00,VWS V13.01,2013-02-16 23:51:00,
2013-02-16 18:56:00,31.0,17.6,29.95,NNW,343,7.0,17.0,57,0.00,,CLR,0.00,VWS V13.01,2013-02-16 23:56:00,
2013-02-16 19:01:00,30.9,17.5,29.94,North,6,6.0,14.0,57,0.00,,CLR,0.00,VWS V13.01,2013-02-17 00:01:00,
2013-02-16 19:07:00,30.8,17.4,29.94,North,349,4.0,14.0,57,0.00,,CLR,0.00,VWS V13.01,2013-02-17 00:07:00,
2013-02-16 19:12:00,30.7,17.3,29.94,NNW,344,6.0,9.0,57,0.00,,CLR,0.00,VWS V13.01,2013-02-17 00:12:00,
2013-02-16 19:17:00,30.7,16.9,29.95,North,6,12.0,15.0,56,0.00,,CLR,0.00,VWS V13.01,2013-02-17 00:17:00,
2013-02-16 19:22:00,30.6,16.8,29.94,North,1,5.0,15.0,56,0.00,,CLR,0.00,VWS V13.01,2013-02-17 00:22:00,
2013-02-16 19:27:00,30.5,17.1,29.94,NNW,333,13.0,13.0,57,0.00,,CLR,0.00,VWS V13.01,2013-02-17 00:27:00,
2013-02-16 19:32:00,30.5,17.1,29.94,North,359,3.0,13.0,57,0.00,,CLR,0.00,VWS V13.01,2013-02-17 00:32:00,
2013-02-16 19:37:00,30.4,17.0,29.94,North,353,9.0,14.0,57,0.00,,CLR,0.00,VWS V13.01,2013-02-17 00:37:00,
2013-02-16 19:42:00,30.3,16.9,29.95,NNW,348,5.0,11.0,57,0.00,,CLR,0.00,VWS V13.01,2013-02-17 00:42:00,
2013-02-16 19:47:00,30.3,17.3,29.95,NNW,346,9.0,11.0,58,0.00,,CLR,0.00,VWS V13.01,2013-02-17 00:47:00,
2013-02-16 19:52:00,30.2,17.2,29.95,North,4,4.0,11.0,58,0.00,,CLR,0.00,VWS V13.01,2013-02-17 00:52:00,
2013-02-16 19:57:00,30.2,17.2,29.95,North,6,4.0,10.0,58,0.00,,CLR,0.00,VWS V13.01,2013-02-17 00:57:00,
2013-02-16 20:02:00,30.1,17.1,29.94,North,350,6.0,11.0,58,0.00,,CLR,0.00,VWS V13.01,2013-02-17 01:02:00,
2013-02-16 20:08:00,30.0,17.4,29.94,NW,316,4.0,12.0,59,0.00,,CLR,0.00,VWS V13.01,2013-02-17 01:08:00,
2013-02-16 20:13:00,29.9,17.3,29.94,NNW,330,7.0,11.0,59,0.00,,CLR,0.00,VWS V13.01,2013-02-17 01:13:00,
2013-02-16 20:18:00,29.8,17.2,29.94,North,5,5.0,11.0,59,0.00,,CLR,0.00,VWS V13.01,2013-02-17 01:18:00,
2013-02-16 20:23:00,29.7,17.1,29.94,North,8,6.0,15.0,59,0.00,,CLR,0.00,VWS V13.01,2013-02-17 01:23:00,
2013-02-16 20:28:00,29.6,17.0,29.94,NNW,345,9.0,14.0,59,0.00,,CLR,0.00,VWS V13.01,2013-02-17 01:28:00,
2013-02-16 20:33:00,29.4,16.9,29.94,North,2,11.0,20.0,59,0.00,,CLR,0.00,VWS V13.01,2013-02-17 01:33:00,
2013-02-16 20:39:00,29.3,16.4,29.94,NNW,340,12.0,20.0,58,0.00,,CLR,0.00,VWS V13.01,2013-02-17 01:39:00,
2013-02-16 20:44:00,29.3,16.4,29.94,NNW,328,13.0,14.0,58,0.00,,CLR,0.00,VWS V13.01,2013-02-17 01:44:00,
2013-02-16 20:49:00,29.2,16.3,29.94,NW,316,10.0,16.0,58,0.00,,CLR,0.00,VWS V13.01,2013-02-17 01:49:00,
2013-02-16 20:54:00,29.1,16.6,29.94,NNW,345,10.0,17.0,59,0.00,,CLR,0.00,VWS V13.01,2013-02-17 01:54:00,
2013-02-16 20:59:00,29.0,16.5,29.94,North,1,8.0,10.0,59,0.00,,CLR,0.00,VWS V13.01,2013-02-17 01:59:00,
2013-02-16 21:04:00,28.9,16.4,29.94,NNE,16,13.0,19.0,59,0.00,,CLR,0.00,VWS V13.01,2013-02-17 02:04:00,
2013-02-16 21:09:00,28.9,16.4,29.94,NNW,341,11.0,19.0,59,0.00,,CLR,0.00,VWS V13.01,2013-02-17 02:09:00,
2013-02-16 21:14:00,28.9,16.4,29.94,NW,321,11.0,18.0,59,0.00,,CLR,0.00,VWS V13.01,2013-02-17 02:14:00,
2013-02-16 21:20:00,28.8,15.9,29.94,NNW,342,13.0,18.0,58,0.00,,CLR,0.00,VWS V13.01,2013-02-17 02:20:00,
2013-02-16 21:25:00,28.8,16.3,29.94,North,360,8.0,18.0,59,0.00,,CLR,0.00,VWS V13.01,2013-02-17 02:25:00,
2013-02-16 21:30:00,28.8,15.9,29.94,WNW,293,15.0,25.0,58,0.00,,CLR,0.00,VWS V13.01,2013-02-17 02:30:00,
2013-02-16 21:35:00,28.7,15.8,29.94,North,349,14.0,25.0,58,0.00,,CLR,0.00,VWS V13.01,2013-02-17 02:35:00,
2013-02-16 21:40:00,28.6,15.7,29.94,North,358,11.0,25.0,58,0.00,,CLR,0.00,VWS V13.01,2013-02-17 02:40:00,
2013-02-16 21:45:00,28.6,15.7,29.94,NW,305,7.0,19.0,58,0.00,,CLR,0.00,VWS V13.01,2013-02-17 02:45:00,
2013-02-16 21:51:00,28.4,15.5,29.93,North,357,11.0,19.0,58,0.00,,CLR,0.00,VWS V13.01,2013-02-17 02:51:00,
2013-02-16 21:56:00,28.4,15.5,29.93,NNW,338,6.0,19.0,58,0.00,,CLR,0.00,VWS V13.01,2013-02-17 02:56:00,
2013-02-16 22:01:00,28.3,15.0,29.93,NNW,345,8.0,14.0,57,0.00,,CLR,0.00,VWS V13.01,2013-02-17 03:01:00,
2013-02-16 22:06:00,28.1,15.2,29.93,North,360,11.0,21.0,58,0.00,,CLR,0.00,VWS V13.01,2013-02-17 03:06:00,
2013-02-16 22:11:00,28.1,15.2,29.92,North,359,5.0,5.0,58,0.00,,CLR,0.00,VWS V13.01,2013-02-17 03:11:00,
2013-02-16 22:17:00,27.9,15.1,29.92,NNW,329,5.0,14.0,58,0.00,,CLR,0.00,VWS V13.01,2013-02-17 03:17:00,
2013-02-16 22:22:00,27.8,15.0,29.92,NNW,328,12.0,17.0,58,0.00,,CLR,0.00,VWS V13.01,2013-02-17 03:22:00,
2013-02-16 22:27:00,27.7,14.9,29.93,North,5,12.0,13.0,58,0.00,,CLR,0.00,VWS V13.01,2013-02-17 03:27:00,
2013-02-16 22:32:00,27.5,15.1,29.92,NW,322,10.0,14.0,59,0.00,,CLR,0.00,VWS V13.01,2013-02-17 03:32:00,
2013-02-16 22:37:00,27.4,15.4,29.93,NW,312,11.0,18.0,60,0.00,,CLR,0.00,VWS V13.01,2013-02-17 03:37:00,
2013-02-16 22:42:00,27.2,15.6,29.93,NW,314,7.0,15.0,61,0.00,,CLR,0.00,VWS V13.01,2013-02-17 03:42:00,
2013-02-16 22:48:00,27.2,15.9,29.93,North,351,19.0,23.0,62,0.00,,CLR,0.00,VWS V13.01,2013-02-17 03:48:00,
2013-02-16 22:53:00,27.1,15.8,29.93,WNW,301,9.0,23.0,62,0.00,,CLR,0.00,VWS V13.01,2013-02-17 03:53:00,
2013-02-16 22:58:00,27.0,16.1,29.93,NNW,347,6.0,12.0,63,0.00,,CLR,0.00,VWS V13.01,2013-02-17 03:58:00,
2013-02-16 23:03:00,26.8,15.9,29.92,NNW,347,7.0,14.0,63,0.00,,CLR,0.00,VWS V13.01,2013-02-17 04:03:00,
2013-02-16 23:08:00,26.7,16.2,29.92,North,9,9.0,14.0,64,0.00,,CLR,0.00,VWS V13.01,2013-02-17 04:08:00,
2013-02-16 23:13:00,26.7,16.2,29.92,NNW,347,11.0,15.0,64,0.00,,CLR,0.00,VWS V13.01,2013-02-17 04:13:00,
2013-02-16 23:18:00,26.6,16.1,29.92,NNW,337,7.0,15.0,64,0.00,,CLR,0.00,VWS V13.01,2013-02-17 04:18:00,
2013-02-16 23:23:00,26.5,16.3,29.92,NNW,333,6.0,15.0,65,0.00,,CLR,0.00,VWS V13.01,2013-02-17 04:23:00,
2013-02-16 23:28:00,26.3,16.1,29.92,NNW,340,4.0,7.0,65,0.00,,CLR,0.00,VWS V13.01,2013-02-17 04:28:00,
2013-02-16 23:34:00,26.2,16.4,29.92,NNW,347,4.0,10.0,66,0.00,,CLR,0.00,VWS V13.01,2013-02-17 04:34:00,
2013-02-16 23:39:00,26.1,16.3,29.92,North,358,6.0,10.0,66,0.00,,CLR,0.00,VWS V13.01,2013-02-17 04:39:00,
2013-02-16 23:44:00,26.1,16.3,29.92,NNW,346,3.0,10.0,66,0.00,,CLR,0.00,VWS V13.01,2013-02-17 04:44:00,
2013-02-16 23:49:00,25.9,16.1,29.92,NW,317,3.0,10.0,66,0.00,,CLR,0.00,VWS V13.01,2013-02-17 04:49:00,
2013-02-16 23:54:00,25.8,16.0,29.92,NNW,330,6.0,11.0,66,0.00,,CLR,0.00,VWS V13.01,2013-02-17 04:54:00,
2013-02-16 23:59:00,25.7,16.3,29.92,NNW,328,5.0,11.0,67,0.00,,CLR,0.00,VWS V13.01,2013-02-17 04:59:00,